[[{"header":{"parameterUnit":"m.s-1","parameterCategory":1,"la1":30.2991,"la2":30.254,"lo1":-89.0895,"lo2":-89.0444,"dy":0.0017,"dx":0.0017,"nx":28,"ny":28,"refTime":"2024-05-14T09:00:00:Z","depth":0,"parameterNumber":2,"parameterNumberName":"U-component_of_WINDS"},"data":[0,0,0,0,0,0,0,0,0,0,0,0,0,0,0,0,0,0,0,0,0,0,0,0,0,0,0,0,0,0,0,0,0,0,0,0,0,0,0,0,0,0,0,0,0,0,0,0,0,0,0,0,0,0,0,0,0,0,2.9292,2.9294,0,2.9505,2.9507,2.951,2.9527,2.9525,2.9523,2.9521,2.9748,2.9756,2.9764,0,0,0,0,0,0,0,0,0,0,0,0,0,2.8912,2.8919,2.9292,2.9295,2.9297,2.9505,2.9508,2.9511,2.9528,2.9525,2.9522,2.952,2.9745,2.9755,2.9765,0,0,0,0,0,0,0,0,0,0,0,0,0,2.9096,2.8921,2.9292,2.9331,2.9336,2.9504,2.9508,2.9511,2.9528,2.9525,2.9521,2.9518,2.9742,2.9754,2.9766,2.9912,0,0,2.9804,2.9809,0,0,0,0,0,0,0,0,2.9086,2.911,2.9322,2.9328,2.9335,2.9486,2.9457,2.9646,2.9529,2.9456,2.9521,2.9517,2.9664,2.9683,2.9731,2.9923,2.9933,2.9805,2.9813,2.9818,2.9821,0,0,0,0,0,0,0,2.9073,2.9101,2.9377,2.9325,2.9333,2.9342,2.9364,2.9493,2.9577,2.9462,2.9464,2.9488,2.9667,2.9719,2.9736,2.9936,2.9805,2.9816,2.9823,2.9828,3.0263,3.0267,0,0,0,0,0,0,2.9051,2.909,2.937,2.9383,2.9199,2.9351,2.9376,2.9441,2.9576,2.9593,2.9491,2.9488,2.9699,2.9722,2.9744,2.9926,2.9818,2.9829,2.9836,3.0259,3.0264,3.0269,0,0,0,0,0,0,2.9043,2.9076,2.9361,2.9237,2.9274,2.9361,2.9434,2.9447,2.9499,2.9598,2.9614,2.9527,2.9698,2.9727,2.9871,2.9934,2.9835,2.9846,3.0254,3.0261,3.0266,3.0289,0,0,0,0,0,0,2.9032,2.9073,2.9126,2.9238,2.9281,2.948,2.9438,2.9454,2.9519,2.9517,2.9636,2.9653,2.9697,2.9852,2.9883,2.9949,2.9856,3.0249,3.0257,3.0264,3.0283,3.0295,3.0306,0,0,0,0,0,2.9018,2.9126,2.9129,2.9162,2.9349,2.9484,2.9509,2.9555,2.9524,2.958,2.9645,2.9649,2.9922,2.9867,2.9901,2.9972,3.0245,3.0255,3.0264,3.0278,3.0293,3.0306,0,0,0,0,0,0,2.9021,2.9141,2.9146,2.9291,2.9377,2.9486,2.9559,2.9569,2.9667,2.9662,2.9718,2.9745,2.9888,2.9945,2.9881,3.0123,3.0081,3.0098,3.008,3.0095,3.0106,3.009,2.9866,0,0,0,0,0,2.9038,2.9135,2.9236,2.9355,2.9397,2.9471,2.9531,2.956,2.9652,2.9689,2.9764,2.9856,2.9963,3.0032,3.0136,3.0292,3.032,3.0359,3.037,3.0379,3.0393,3.0483,3.0502,3.0299,3.0299,3.0299,0,0,2.9076,2.9153,2.9211,2.9358,2.9427,2.9529,2.9501,2.961,2.9688,2.9707,2.9846,2.9905,3.0012,3.0163,3.0233,3.0215,3.0455,3.0391,3.0397,3.0407,3.0495,3.0514,3.0531,3.0306,3.0305,3.0304,0,0,2.9196,2.9263,2.937,2.9441,2.9546,2.9594,2.962,2.9729,2.9768,2.9909,2.9926,3.0022,3.0204,3.028,3.0342,3.0495,3.0504,3.0528,3.0588,3.0675,3.0691,3.0705,3.0762,3.0781,3.0542,3.0542,3.0542,0,2.923,2.9381,2.9425,2.9534,2.96,2.962,2.9732,2.9799,2.9934,2.9981,2.9958,3.0189,3.0262,3.0433,3.047,3.052,3.0554,3.0514,3.0684,3.0699,3.0713,3.0768,3.0789,3.0544,3.0544,3.0543,3.0543,0,2.9418,2.9524,2.9599,2.9726,2.98,2.991,2.9975,3.0046,3.0069,3.0121,3.0267,3.0356,3.0479,3.0522,3.0546,3.0698,3.0683,3.0672,3.0631,3.0734,3.0787,3.0808,3.0547,3.0546,3.0546,3.0545,0,0,2.9544,2.9696,2.9723,2.9782,2.9901,2.9985,3.0098,3.0216,3.0277,3.0371,3.0469,3.0624,3.0615,3.0686,3.072,3.0796,3.0915,3.0776,3.078,3.08,3.1091,3.1099,3.1122,3.0922,3.0926,3.0929,3.1082,0,2.9679,2.9875,2.9921,3.0092,3.0192,3.0214,3.0313,3.0399,3.0452,3.0548,3.0608,3.0718,3.0696,3.074,3.0816,3.0884,3.0974,3.0874,3.1017,3.1022,3.0989,3.1149,3.1158,3.1297,3.1103,3.1106,3.1109,0,2.9861,2.9956,3.0136,3.0244,3.0288,3.0376,3.0489,3.0579,3.0679,3.0713,3.0794,3.082,3.0943,3.0896,3.1069,3.0999,3.1061,3.1104,3.1111,3.1126,3.1071,3.117,3.1343,3.1364,3.1141,3.1139,3.1136,0,2.9936,3.011,3.0241,3.0291,3.042,3.0482,3.0539,3.0635,3.0705,3.0806,3.0852,3.0967,3.103,3.1121,3.1179,3.1139,3.1348,3.1305,3.1383,3.1381,3.1425,3.1422,3.1611,3.1464,3.1464,3.1463,3.1463,0,3.0081,3.0191,3.0277,3.0357,3.0483,3.0536,3.066,3.0719,3.0805,3.09,3.0928,3.1018,3.1089,3.1191,3.1238,3.1375,3.1404,3.1437,3.1449,3.1435,3.1431,3.1477,3.1469,3.1469,3.1468,3.1467,3.1466,0,3.0186,3.0248,3.0392,3.0503,3.0533,3.0621,3.0718,3.08,3.0854,3.0975,3.1007,3.1093,3.1214,3.1282,3.1434,3.1466,3.162,3.1626,3.1585,3.159,3.1664,3.1657,3.189,3.1925,3.1753,3.1755,3.1756,0,3.0275,3.036,3.0479,3.0544,3.0601,3.0705,3.0776,3.0833,3.0906,3.1028,3.1096,3.1218,3.1318,3.1512,3.1591,3.1709,3.1719,3.1793,3.1737,3.1721,3.1722,3.1716,3.1727,3.1802,3.1804,3.1805,3.1806,0,3.0427,3.0453,3.0551,3.0662,3.0745,3.0835,3.0925,3.0978,3.1051,3.1133,3.1255,3.1333,3.1488,3.161,3.1735,3.1799,3.1817,3.1823,3.1848,3.1835,3.1808,3.1825,3.1612,3.1817,3.1816,3.1815,3.1815,3.1814,3.0528,3.0605,3.0701,3.0811,3.0885,3.0969,3.1051,3.1116,3.1218,3.1346,3.1376,3.1506,3.1608,3.1777,3.1844,3.195,3.1937,3.1971,3.1981,3.1989,3.1992,3.179,3.1973,3.1973,3.1972,3.1972,3.1972,0,3.0682,3.0745,3.0846,3.097,3.1058,3.1063,3.1164,3.1238,3.1351,3.1444,3.1542,3.1685,3.1804,3.1893,3.2016,3.2084,3.2095,3.2115,3.2111,3.2126,3.1996,3.1963,3.2103,3.2103,3.2103,3.2103,3.2103,3.2103,3.0772,3.0904,3.0943,3.1113,3.1177,3.1302,3.1359,3.1439,3.1513,3.167,3.1768,3.1825,3.1918,3.2048,3.216,3.2183,3.2228,3.2247,3.2272,3.2149,3.2135,3.2121,3.209,3.2255,3.2256,3.2393,3.2394,3.2395]},{"header":{"parameterUnit":"m.s-1","parameterCategory":1,"la1":30.2991,"la2":30.254,"lo1":-89.0895,"lo2":-89.0444,"dy":0.0017,"dx":0.0017,"nx":28,"ny":28,"refTime":"2024-05-14T09:00:00:Z","depth":0,"parameterNumber":3,"parameterNumberName":"V-component_of_WINDS"},"data":[0,0,0,0,0,0,0,0,0,0,0,0,0,0,0,0,0,0,0,0,0,0,0,0,0,0,0,0,0,0,0,0,0,0,0,0,0,0,0,0,0,0,0,0,0,0,0,0,0,0,0,0,0,0,0,0,0,0,0.2935,0.2937,0,0.3106,0.3108,0.311,0.3147,0.3146,0.3145,0.3143,0.333,0.3336,0.3342,0,0,0,0,0,0,0,0,0,0,0,0,0,0.2651,0.2656,0.2935,0.2937,0.2939,0.3106,0.3108,0.3111,0.3147,0.3146,0.3144,0.3143,0.3328,0.3336,0.3343,0,0,0,0,0,0,0,0,0,0,0,0,0,0.2794,0.2658,0.2934,0.2977,0.2983,0.3105,0.3108,0.3111,0.3148,0.3146,0.3144,0.3142,0.3326,0.3335,0.3344,0.3439,0,0,0.3372,0.3376,0,0,0,0,0,0,0,0,0.2786,0.2804,0.2969,0.2974,0.2981,0.3103,0.3077,0.3222,0.3148,0.3086,0.3143,0.3141,0.3257,0.3272,0.3308,0.3448,0.3456,0.3373,0.3379,0.3383,0.3385,0,0,0,0,0,0,0,0.2776,0.2797,0.3003,0.2971,0.2979,0.2992,0.301,0.3104,0.318,0.3091,0.3094,0.3113,0.326,0.3299,0.3313,0.3459,0.3373,0.3381,0.3387,0.339,0.3689,0.3692,0,0,0,0,0,0,0.2757,0.2788,0.2997,0.3008,0.2876,0.2998,0.3019,0.3066,0.3179,0.3194,0.3114,0.3114,0.3285,0.3302,0.332,0.3442,0.3383,0.3391,0.3397,0.3687,0.369,0.3692,0,0,0,0,0,0,0.275,0.2775,0.2991,0.2899,0.2927,0.3005,0.3058,0.307,0.311,0.3197,0.3212,0.314,0.3284,0.3307,0.3409,0.3449,0.3395,0.3404,0.3684,0.3688,0.3691,0.3685,0,0,0,0,0,0,0.2742,0.2772,0.2807,0.2899,0.2932,0.3074,0.306,0.3075,0.3124,0.3125,0.3225,0.324,0.3284,0.3395,0.3419,0.3461,0.3411,0.3681,0.3686,0.369,0.3682,0.3688,0.3693,0,0,0,0,0,0.2732,0.28,0.2808,0.2833,0.2976,0.3076,0.3095,0.3141,0.3127,0.3165,0.3221,0.3237,0.344,0.3405,0.3432,0.3477,0.3679,0.3684,0.369,0.3679,0.3686,0.3692,0,0,0,0,0,0,0.2714,0.2813,0.2823,0.2923,0.299,0.3082,0.313,0.3147,0.3223,0.3221,0.3279,0.3301,0.3401,0.3449,0.3409,0.3577,0.3559,0.357,0.3542,0.355,0.3555,0.3543,0.3419,0,0,0,0,0,0.272,0.2789,0.2874,0.2954,0.2986,0.3052,0.3097,0.3127,0.3201,0.3231,0.3294,0.3369,0.345,0.3502,0.3581,0.3688,0.3713,0.3732,0.3738,0.3742,0.3752,0.3816,0.3827,0.371,0.371,0.371,0,0,0.2737,0.28,0.284,0.2951,0.3007,0.3081,0.3076,0.3154,0.3211,0.3244,0.3344,0.3393,0.3481,0.3586,0.3636,0.363,0.3789,0.3748,0.3751,0.3759,0.3822,0.3833,0.3843,0.3714,0.3713,0.3713,0,0,0.2805,0.2857,0.2931,0.2986,0.3069,0.3113,0.313,0.3219,0.3252,0.3353,0.338,0.345,0.3587,0.3649,0.3698,0.3789,0.3809,0.3814,0.3843,0.3905,0.3914,0.3923,0.3959,0.3971,0.3823,0.3823,0.3823,0,0.2817,0.2925,0.2968,0.3045,0.3095,0.3123,0.32,0.3253,0.336,0.3395,0.3385,0.3559,0.3619,0.3741,0.3763,0.3801,0.3827,0.3804,0.3908,0.3918,0.3926,0.3962,0.3975,0.3823,0.3823,0.3823,0.3823,0,0.2937,0.3012,0.3062,0.316,0.3216,0.3292,0.335,0.3402,0.3426,0.3472,0.3576,0.3649,0.3744,0.3775,0.3801,0.3902,0.3896,0.3896,0.388,0.3937,0.3972,0.3985,0.3823,0.3823,0.3823,0.3823,0,0,0.3001,0.312,0.3138,0.3184,0.3278,0.3339,0.3419,0.3508,0.3553,0.3625,0.3697,0.3812,0.3813,0.3869,0.3902,0.3955,0.4028,0.395,0.3953,0.3965,0.4149,0.415,0.4165,0.4039,0.4042,0.4044,0.4143,0,0.3084,0.3222,0.3263,0.3382,0.3455,0.3482,0.3552,0.362,0.3664,0.3735,0.3786,0.3868,0.3861,0.3896,0.3949,0.4007,0.4066,0.4,0.4111,0.4115,0.4092,0.4182,0.4184,0.4274,0.4156,0.4158,0.416,0,0.3199,0.327,0.3395,0.3481,0.3513,0.3574,0.3661,0.3727,0.3805,0.3834,0.3896,0.3924,0.4013,0.3988,0.4114,0.4068,0.4116,0.4151,0.4156,0.4172,0.4143,0.4205,0.4303,0.4318,0.4181,0.4179,0.4178,0,0.3238,0.3365,0.3457,0.3495,0.3596,0.3639,0.3684,0.376,0.3812,0.3889,0.3924,0.4011,0.406,0.4128,0.4181,0.4158,0.4304,0.4283,0.4335,0.4334,0.4368,0.4366,0.4479,0.4391,0.4391,0.4391,0.4391,0,0.3328,0.3405,0.3476,0.3533,0.362,0.3667,0.3754,0.3801,0.3868,0.3938,0.3968,0.4034,0.4097,0.4173,0.4215,0.4315,0.4336,0.4366,0.4377,0.4365,0.4362,0.44,0.4397,0.4394,0.4394,0.4393,0.4392,0,0.3388,0.3438,0.354,0.3627,0.365,0.3712,0.3788,0.3847,0.3891,0.3979,0.4003,0.4075,0.4166,0.4224,0.434,0.4368,0.4479,0.4486,0.4452,0.4458,0.4508,0.4504,0.4654,0.4678,0.4569,0.457,0.4571,0,0.3444,0.3503,0.3595,0.3642,0.3686,0.3761,0.3814,0.3863,0.3917,0.4011,0.406,0.4151,0.4227,0.4371,0.4437,0.4527,0.4539,0.4585,0.4553,0.4541,0.4545,0.4542,0.4551,0.4592,0.4593,0.4593,0.4594,0,0.354,0.3561,0.3633,0.3715,0.3775,0.3843,0.3911,0.3949,0.401,0.4071,0.4161,0.422,0.4337,0.443,0.4525,0.4576,0.4598,0.4603,0.4621,0.4612,0.4591,0.4607,0.447,0.46,0.46,0.4599,0.4599,0.4599,0.3602,0.3657,0.373,0.3811,0.3866,0.3929,0.3988,0.4039,0.4114,0.4211,0.4236,0.4333,0.4413,0.4542,0.4595,0.4674,0.4669,0.4693,0.4701,0.4707,0.471,0.4574,0.4691,0.4691,0.4691,0.4691,0.4691,0,0.3703,0.3751,0.3824,0.3916,0.398,0.3989,0.4065,0.412,0.4202,0.4272,0.4346,0.4452,0.4542,0.4613,0.4707,0.4757,0.4769,0.478,0.4779,0.4792,0.4707,0.4684,0.4768,0.4768,0.4768,0.4768,0.4768,0.4768,0.3763,0.3857,0.3887,0.4011,0.4059,0.4151,0.4194,0.4253,0.431,0.4426,0.4499,0.4543,0.4616,0.4714,0.4799,0.4818,0.4853,0.4863,0.4885,0.4805,0.4797,0.4789,0.4768,0.4869,0.4869,0.4964,0.4964,0.4965]}]]